DW4174 Weather Reports


time (UTC)temp
F
wind
direction
speed
knots
gust
knots
rain 1hr
in
rain 24hr
in
rain mn
in
humidity
%
barometer
mb
20260901143721 81 68 1.7 3.5 0.00 0.11 0.00 65 1013.8
20260901141921 80 83 1.7 3.5 0.00 0.12 0.00 68 1013.8
20260901135221 78 0 0.0 0.0 0.00 0.12 0.00 70 1013.8
20260901134321 78 0 0.0 0.0 0.00 0.12 0.00 70 1013.6
20260901133421 78 0 0.0 0.0 0.00 0.12 0.00 71 1013.4
20260901131621 77 70 1.7 3.5 0.00 0.12 0.00 71 1013.0
20260901130721 77 73 1.7 4.3 0.00 0.12 0.00 71 1013.0
20260901125821 77 69 1.7 4.3 0.00 0.12 0.00 70 1013.1
20260901124920 78 75 1.7 3.5 0.00 0.12 0.00 70 1013.2
20260901124021 78 73 0.9 3.5 0.00 0.12 0.00 70 1013.1
20260901122221 78 68 0.9 3.5 0.00 0.12 0.00 69 1013.0
20260901121321 78 66 0.9 3.5 0.00 0.12 0.00 69 1012.9
20260901120420 78 64 0.9 3.5 0.00 0.12 0.00 69 1012.7
20260901115520 78 64 0.9 2.6 0.00 0.12 0.00 69 1012.6
20260901114620 78 59 0.9 3.5 0.00 0.12 0.00 68 1012.6
20260901113720 78 56 0.0 1.7 0.00 0.12 0.00 69 1012.6
20260901112821 78 0 0.0 0.0 0.00 0.12 0.00 70 1012.5
20260901111921 78 0 0.0 0.0 0.00 0.12 0.00 70 1012.5
20260901105220 78 127 0.9 2.6 0.00 0.12 0.00 69 1012.4
20260901104321 78 126 0.9 1.7 0.00 0.12 0.00 68 1012.5
20260901103421 78 126 0.9 2.6 0.00 0.12 0.00 68 1012.6
20260901102520 78 127 0.0 2.6 0.00 0.12 0.00 68 1012.6
20260901101620 78 0 0.0 0.0 0.00 0.12 0.00 69 1012.6
20260901100720 78 0 0.0 0.0 0.00 0.12 0.00 69 1012.6
20260901095820 79 0 0.0 0.0 0.00 0.12 0.00 70 1012.5
20260901094920 78 0 0.0 0.0 0.00 0.12 0.00 70 1012.6
20260901094020 78 0 0.0 0.0 0.00 0.12 0.00 71 1012.6
20260901093120 78 0 0.0 0.0 0.00 0.12 0.00 70 1012.7
20260901092220 79 0 0.0 0.0 0.00 0.12 0.00 70 1012.8
20260901091320 79 0 0.0 0.0 0.00 0.12 0.00 70 1012.8
20260901090420 79 0 0.0 0.0 0.00 0.12 0.00 70 1012.9
20260901085520 79 0 0.0 0.0 0.00 0.12 0.00 69 1012.9
20260901084620 79 0 0.0 0.0 0.00 0.12 0.00 69 1012.8
20260901083720 79 0 0.0 0.0 0.00 0.12 0.00 69 1012.9
20260901082820 80 136 0.0 1.7 0.00 0.12 0.00 68 1012.9
20260901081920 80 0 0.0 0.0 0.00 0.12 0.00 67 1012.8
20260901081020 80 137 0.9 2.6 0.00 0.12 0.00 66 1012.8
20260901080120 80 141 0.9 2.6 0.00 0.12 0.00 66 1012.7
20260901075220 80 136 0.9 7.8 0.00 0.12 0.00 65 1012.7
20260901073420 80 0 0.0 0.0 0.00 0.12 0.00 67 1012.8
20260901072520 80 97 0.0 1.7 0.00 0.12 0.00 67 1012.7
20260901070720 80 108 0.9 5.2 0.00 0.12 0.00 66 1012.7
20260901065820 81 101 0.9 5.2 0.00 0.12 0.12 65 1012.5
20260901064920 81 99 0.9 3.5 0.00 0.12 0.12 64 1012.4
20260901064020 81 110 0.9 5.2 0.00 0.12 0.12 63 1012.3
20260901063120 81 137 0.9 1.7 0.00 0.12 0.12 62 1012.4
20260901062220 82 121 0.9 3.5 0.00 0.12 0.12 61 1012.2
20260901061320 82 114 1.7 4.3 0.00 0.12 0.12 61 1012.3
20260901060420 82 105 1.7 3.5 0.00 0.12 0.12 59 1012.3
20260901055520 82 107 0.9 3.5 0.00 0.12 0.12 58 1012.3
20260901053720 82 119 0.9 1.7 0.00 0.12 0.12 56 1012.3
20260901052820 83 119 0.9 3.5 0.00 0.12 0.12 56 1012.3
20260901051920 83 122 0.0 3.5 0.00 0.12 0.12 55 1012.2
20260901050120 83 129 0.0 2.6 0.00 0.12 0.12 54 1012.2
20260901045220 84 151 1.7 5.2 0.00 0.12 0.12 53 1012.3
20260901044320 84 139 0.9 5.2 0.00 0.12 0.12 53 1012.2
20260901043420 84 127 0.0 3.5 0.00 0.12 0.12 51 1012.2
20260901041620 84 160 1.7 4.3 0.00 0.12 0.12 49 1012.3
20260901035820 85 146 1.7 7.0 0.00 0.12 0.12 51 1011.9
20260901034920 85 153 1.7 3.5 0.00 0.12 0.12 51 1012.0
20260901033120 86 160 1.7 6.1 0.00 0.12 0.12 51 1011.8
20260901032220 86 181 1.7 5.2 0.00 0.12 0.12 48 1011.8
20260901031320 86 183 1.7 3.5 0.00 0.12 0.12 48 1011.6
20260901030420 86 177 1.7 5.2 0.00 0.12 0.12 47 1011.3
20260901025520 86 197 0.9 3.5 0.00 0.12 0.12 47 1011.3
20260901024620 85 228 0.0 1.7 0.00 0.12 0.12 48 1011.1
20260901023720 85 229 0.0 0.9 0.00 0.12 0.12 47 1011.1
20260901022820 86 229 0.9 1.7 0.00 0.12 0.12 47 1011.1
20260901021020 86 227 0.0 2.6 0.00 0.12 0.12 47 1010.9
20260901020120 86 0 0.0 0.0 0.00 0.12 0.12 46 1010.6
20260901014320 86 181 0.0 1.7 0.00 0.12 0.12 45 1010.7
20260901013420 86 181 0.0 1.7 0.00 0.12 0.12 46 1010.6
20260901012520 87 181 0.9 2.6 0.00 0.12 0.12 46 1010.5
20260901010720 88 189 0.9 4.3 0.00 0.12 0.12 45 1010.8
20260901005820 87 131 0.9 2.6 0.00 0.12 0.12 46 1010.8
20260901004920 88 122 0.9 7.0 0.00 0.12 0.12 44 1010.8
20260901004020 88 148 1.7 5.2 0.00 0.12 0.12 44 1010.8
20260901003120 88 134 1.7 5.2 0.00 0.12 0.12 44 1010.9
20260901000420 88 109 2.6 6.1 0.00 0.12 0.12 43 1011.2
20260831235519 89 110 2.6 7.0 0.00 0.12 0.12 42 1011.1
20260831234619 89 103 2.6 6.1 0.00 0.12 0.12 45 1011.2
20260831233719 89 115 2.6 7.0 0.00 0.12 0.12 46 1011.4
20260831232819 89 135 3.5 6.1 0.00 0.12 0.12 46 1011.3
20260831230120 88 123 4.3 10.4 0.00 0.12 0.12 48 1011.4
20260831225219 88 124 4.3 9.6 0.00 0.12 0.12 48 1011.7
20260831224320 89 132 4.3 10.4 0.00 0.12 0.12 48 1011.7
20260831223420 88 104 4.3 10.4 0.00 0.12 0.12 48 1011.7
20260831222520 88 105 3.5 10.4 0.00 0.12 0.12 49 1011.9
20260831221619 88 130 3.5 8.7 0.00 0.12 0.12 52 1012.1
20260831220719 88 110 4.3 8.7 0.00 0.12 0.12 52 1012.5
20260831215819 88 130 4.3 10.4 0.00 0.12 0.12 52 1012.9
20260831214020 87 118 4.3 12.2 0.00 0.12 0.12 52 1013.4
20260831213119 87 130 3.5 7.8 0.00 0.12 0.12 52 1013.6
20260831212219 87 117 4.3 9.6 0.00 0.12 0.12 52 1013.7
20260831211319 86 106 5.2 12.2 0.00 0.12 0.12 54 1013.9
20260831205519 86 122 5.2 10.4 0.00 0.12 0.12 54 1014.2
20260831204619 85 109 6.1 12.2 0.00 0.12 0.12 55 1014.4
20260831202819 85 139 5.2 15.6 0.00 0.12 0.12 59 1014.6
20260831201919 85 143 4.3 13.0 0.00 0.12 0.12 60 1014.7
20260831201019 83 119 5.2 10.4 0.00 0.12 0.12 62 1014.6
20260831200119 82 133 5.2 12.2 0.00 0.12 0.12 65 1014.7
20260831195219 81 140 4.3 12.2 0.00 0.12 0.12 65 1014.7
20260831194319 81 139 3.5 12.2 0.00 0.12 0.12 65 1014.6
20260831193419 81 131 4.3 10.4 0.00 0.12 0.12 67 1014.8
20260831191619 80 112 3.5 12.2 0.00 0.12 0.12 71 1015.0
20260831190719 80 124 3.5 8.7 0.00 0.12 0.12 71 1014.9
20260831185819 80 144 3.5 9.6 0.00 0.12 0.12 70 1015.0
20260831184919 79 154 4.3 8.7 0.00 0.12 0.12 70 1015.3
20260831183119 79 153 4.3 9.6 0.00 0.12 0.12 75 1014.9
20260831182219 79 149 2.6 11.3 0.00 0.12 0.12 76 1014.8
20260831181319 79 123 3.5 7.8 0.00 0.12 0.12 78 1014.9
20260831180419 78 104 3.5 7.8 0.00 0.12 0.12 82 1015.0
20260831175519 78 96 3.5 5.2 0.00 0.12 0.12 84 1015.3
20260831174619 77 86 4.3 7.8 0.00 0.12 0.12 84 1015.5
20260831173719 77 75 2.6 7.8 0.00 0.12 0.12 84 1015.6
20260831172819 77 60 2.6 7.0 0.00 0.12 0.12 84 1015.9
20260831171919 77 67 3.5 7.0 0.00 0.12 0.12 84 1015.6
20260831171019 76 70 3.5 6.1 0.01 0.12 0.12 84 1015.3
20260831170119 76 78 4.3 7.8 0.02 0.12 0.12 84 1015.2
20260831165219 75 90 5.2 9.6 0.03 0.12 0.12 85 1015.3
20260831164319 76 80 4.3 8.7 0.05 0.12 0.12 85 1015.3
20260831162519 75 63 4.3 10.4 0.09 0.12 0.12 85 1015.1
20260831161619 75 65 4.3 8.7 0.10 0.12 0.12 85 1015.1
20260831160719 75 60 5.2 9.6 0.10 0.11 0.11 85 1015.1
20260831155819 75 85 7.0 11.3 0.09 0.10 0.10 85 1015.0
20260831154919 75 89 5.2 11.3 0.07 0.08 0.08 84 1014.8
20260831154019 76 88 3.5 7.8 0.05 0.06 0.06 84 1015.2
20260831153119 76 102 2.6 7.0 0.03 0.04 0.04 83 1015.4
20260831152219 76 125 0.9 6.1 0.02 0.02 0.03 81 1015.4
20260831151319 76 131 2.6 6.1 0.01 0.01 0.01 79 1015.5
20260831150419 76 121 4.3 10.4 0.01 0.01 0.01 78 1015.2
20260831145519 76 123 4.3 10.4 0.01 0.01 0.01 79 1015.0
20260831144619 77 123 2.6 10.4 0.01 0.01 0.01 79 1014.7